Location: Bottenau
(48.5138°N, 8.0462°E)
Time: 21:19:56
(UTC+00:00)

CENTAUR R/B - Pass Details

Date: 18 April 2021
Orbit: 742 x 1446 km, 63.4° (Epoch: 18 April)

Event Time Altitude Azimuth Distance (km) Brightness Sun altitude
Rises 18:40:40 0° 317° (NW) 4,185 7.2 -3.5°
Reaches altitude 10° 18:43:26 10° 312° (NW) 3,301 6.7 -3.9°
Maximum altitude 18:51:12 49° 241° (WSW) 1,750 4.2 -5.1°
Drops below altitude 10° 18:59:35 10° 171° (S) 3,552 5.1 -6.4°
Sets 19:02:41 0° 166° (SSE) 4,525 5.6 -6.8°
